This is the latest recevied weather packets stored in our database for station/object K7TUS-6. If no packets are shown the sender has not sent any weather packets the latest 10 day(s).
| Time | Temp. | Humidity | Pressure | Rain* | Wind** | Luminosity | Snow |
|---|---|---|---|---|---|---|---|
| 1777882508 | 6.67° C | 20% | 980 hPa | - | - | - | - |
| 1777881907 | 6.67° C | 15% | 980.2 hPa | - | - | - | - |
| 1777881306 | 6.67° C | 18% | 980.1 hPa | - | - | - | - |
| 1777881006 | 7.22° C | 17% | 979.9 hPa | - | - | - | - |
| 1777880405 | 7.22° C | 17% | 980.4 hPa | - | - | - | - |
| 1777880104 | 7.22° C | 18% | 979.3 hPa | - | - | - | - |
| 1777879804 | 7.78° C | 17% | 979.4 hPa | - | - | - | - |
| 1777879503 | 7.22° C | 19% | 979.2 hPa | - | - | - | - |
| 1777879209 | 7.78° C | 17% | 979.7 hPa | - | - | - | - |
| 1777878608 | 7.78° C | 15% | 979.8 hPa | - | - | - | - |
| 1777878308 | 7.78° C | 18% | 980.9 hPa | - | - | - | - |
| 1777878007 | 7.22° C | 18% | 980.2 hPa | - | - | - | - |
| 1777877706 | 7.22° C | 18% | 980.2 hPa | - | - | - | - |
| 1777877405 | 7.22° C | 18% | 980.6 hPa | - | - | - | - |
| 1777877105 | 7.22° C | 18% | 980 hPa | - | - | - | - |
| 1777876805 | 7.22° C | 18% | 980.5 hPa | - | - | - | - |
| 1777876504 | 7.78° C | 17% | 980.2 hPa | - | - | - | - |
| 1777876209 | 7.78° C | 16% | 980.6 hPa | - | - | - | - |
| 1777875909 | 7.78° C | 18% | 981.3 hPa | - | - | - | - |
| 1777875608 | 7.78° C | 19% | 981 hPa | - | - | - | - |
| 1777875307 | 7.22° C | 19% | 981.2 hPa | - | - | - | - |
| 1777875007 | 7.78° C | 19% | 981 hPa | - | - | - | - |
| 1777874707 | 7.78° C | 20% | 981 hPa | - | - | - | - |
| 1777874409 | 7.22° C | 19% | 981.1 hPa | - | - | - | - |
| 1777874105 | 7.22° C | 17% | 980.7 hPa | - | - | - | - |
* Rain since midnight (hover to see other rain measurements)
** Current wind speed in m/s (hover to see current wind gust speed)